Location: Berkeley
(37.8716°N, 122.2727°W)
Time: 10:47:40
(UTC-08:00)

N. Korean satellite - Visible Passes

Search period start: 12 December 2018 00:00
Search period end: 22 December 2018 00:00
Orbit: 456 x 511 km, 97.2° (Epoch: 12 December)

Date Brightness Start Highest point End Pass type
(mag) Time Alt. Az. Time Alt. Az. Time Alt. Az.
12 Dec 6.8 17:22:04 10° SSE 17:25:20 44° ENE 17:28:38 10° N visible
13 Dec 6.7 06:23:22 10° NNE 06:26:57 81° ESE 06:30:34 10° S visible
13 Dec 9.5 18:31:53 10° SW 18:34:17 18° W 18:36:40 10° NW visible
14 Dec 8.3 05:59:02 10° NNE 06:02:21 35° E 06:05:43 10° SSE visible
14 Dec 8.0 18:06:23 10° SSW 18:09:36 38° W 18:12:50 10° NNW visible
15 Dec 9.7 05:35:14 10° NE 05:37:41 17° E 05:40:09 10° SE visible
15 Dec 6.4 17:41:35 10° SSE 17:45:00 89° ENE 17:48:27 10° NNW visible
16 Dec 6.7 06:43:07 10° N 06:46:38 51° WNW 06:50:10 10° SSW visible
16 Dec 6.9 17:17:18 10° SE 17:20:29 38° ENE 17:23:41 10° N visible
17 Dec 6.9 06:18:29 10° NNE 06:22:06 69° ESE 06:25:44 10° S visible
17 Dec 9.3 18:26:45 10° SW 18:29:22 20° W 18:31:59 10° NW visible
18 Dec 8.6 05:54:13 10° NNE 05:57:29 31° E 06:00:46 10° SSE visible
18 Dec 7.7 18:01:24 10° S 18:04:41 44° W 18:08:00 10° NNW visible
19 Dec 9.8 05:30:33 10° NE 05:32:47 15° E 05:35:01 10° SE visible
19 Dec 6.3 17:36:41 10° SSE 17:40:05 76° ENE 17:43:32 10° N visible
20 Dec 6.6 06:38:09 10° N 06:41:46 61° WNW 06:45:23 10° SSW visible
20 Dec 10.0 18:48:04 10° WSW 18:49:09 11° W 18:50:14 10° WNW visible
21 Dec 7.2 06:13:34 10° NNE 06:17:11 59° E 06:20:50 10° S visible
21 Dec 9.1 18:21:36 10° SSW 18:24:23 23° W 18:27:14 10° NW visible
